Location: Unspecified
(0.0000°N, 1.0000°E)
Time: 07:15:39
(UTC+02:00)

Amateur Radio Satellites - All Passes

Search period start: 25 July 2014 06:45
Search period end: 26 July 2014 06:45
Location: Unspecified, 0.0000°N, 1.0000°E

Satellite Date Start Highest point End Downlink Frequencies (MHz)
Time Altitude Azimuth
AO-7 25 Jul 07:21:14 07:27:15 23° 287° (WNW) 07:33:19 29.400 - 29.500 MHz
Hamsat 25 Jul 07:46:43 07:51:00 66° 281° (WNW) 07:55:20 145.90 MHz
JAS-2 25 Jul 08:03:43 08:09:06 79° 282° (WNW) 08:14:16 435.800 - 435.900 CW/SSB, 435.910 FM
SO-67 25 Jul 08:12:18 08:14:57 21° 101° (E) 08:17:37 435.3500 MHz FM
Saudisat 1A 25 Jul 08:16:37 08:20:58 59° 112° (ESE) 08:25:18 436.775 MHz
KITSAT 1 25 Jul 08:25:17 08:31:13 23° 291° (WNW) 08:37:11 435.175 FM
STRAND 1 25 Jul 08:46:43 08:51:38 46° 257° (WSW) 08:56:33 ?
HO-68 25 Jul 09:16:37 09:18:32 11° 106° (ESE) 09:20:27 435.675 MHz FM
MaSat-1 25 Jul 09:22:26 09:25:13 15° 70° (ENE) 09:27:50 437.345 MHz
Oscar 11 25 Jul 10:32:53 10:35:37 16° 102° (ESE) 10:38:21 145.825 FM, Beacon 2401.500 USB
Lituanica SAT-1 25 Jul 10:33:04 10:34:42 20° 234° (SW) 10:36:20 437.275 MHz beacon
MaSat-1 25 Jul 10:58:27 11:02:23 26° 256° (WSW) 11:05:56 437.345 MHz
HO-68 25 Jul 10:58:46 11:05:50 70° 284° (WNW) 11:12:56 435.675 MHz FM
UKube-1 25 Jul 11:17:27 11:21:31 41° 282° (WNW) 11:25:37 145.840 MHz, 145.915 MHz
ISS 25 Jul 11:45:37 11:48:56 76° 235° (SW) 11:52:15 145.800 FM
Oscar 11 25 Jul 12:08:19 12:11:32 20° 282° (WNW) 12:14:45 145.825 FM, Beacon 2401.500 USB
FUNcube-1 25 Jul 12:16:23 12:20:30 56° 281° (WNW) 12:24:44 145.950 - 145.970 MHz USB
RS-15 25 Jul 12:34:00 12:42:27 23° 113° (ESE) 12:50:33 29.354 - 29.394 USB, Beacon 29.352 USB
Sapphire 25 Jul 12:44:35 12:48:25 20° 70° (ENE) 12:52:14 437.095 MHz 1200 baud AX-25 AFSK
PCSat 25 Jul 13:17:01 13:22:16 53° 71° (ENE) 13:27:30 145.825 MHz
SO-50 25 Jul 13:43:02 13:47:16 45° 292° (WNW) 13:51:30 436.795 FM
PANSAT 25 Jul 13:53:27 13:54:56 12° 28° (NNE) 13:56:25 not established
Oscar 16 25 Jul 14:11:29 14:14:29 16° 77° (ENE) 14:17:28 437.025 USB, Beacon 2401.1428
Sapphire 25 Jul 14:27:03 14:31:33 27° 250° (WSW) 14:36:05 437.095 MHz 1200 baud AX-25 AFSK
UOSAT-12 25 Jul 14:28:21 14:31:38 20° 112° (ESE) 14:34:57 437.025 FM, 437.400 FM
AO-Echo 25 Jul 14:36:02 14:36:36 10° 77° (ENE) 14:37:11 ?
AO-27 25 Jul 14:42:09 14:44:30 13° 77° (ENE) 14:46:51 436.795 MHz FM
RS-15 25 Jul 14:43:13 14:54:35 61° 290° (WNW) 15:05:28 29.354 - 29.394 USB, Beacon 29.352 USB
Uribyol 2 25 Jul 14:44:07 14:47:00 15° 77° (ENE) 14:49:51 436.500 FM
JAS-1B 25 Jul 14:58:22 15:02:14 15° 71° (ENE) 15:06:22 435.800 - 435.900 CW/SSB
Oscar 19 25 Jul 15:20:52 15:25:59 73° 258° (WSW) 15:31:04 437.125 CW, 437.150 USB
PANSAT 25 Jul 15:31:19 15:35:09 77° 31° (NNE) 15:38:59 not established
Oscar 16 25 Jul 15:49:05 15:53:34 31° 257° (WSW) 15:58:02 437.025 USB, Beacon 2401.1428
TMSAT-1 25 Jul 15:56:57 16:01:03 23° 77° (ENE) 16:05:08 436.925 FM
ITAMSAT 1 25 Jul 16:00:29 16:05:40 65° 257° (WSW) 16:10:50 435.822 SSB
UOSAT-12 25 Jul 16:08:25 16:11:31 18° 293° (WNW) 16:14:39 437.025 FM, 437.400 FM
AO-Echo 25 Jul 16:10:08 16:15:01 47° 258° (WSW) 16:20:01 ?
Gurwin Techsat 1B 25 Jul 16:17:24 16:22:40 63° 78° (ENE) 16:27:54 435.225 FM
AO-27 25 Jul 16:18:55 16:23:44 38° 257° (WSW) 16:28:32 436.795 MHz FM
Uribyol 2 25 Jul 16:21:31 16:26:11 33° 257° (WSW) 16:30:51 436.500 FM
JAS-1B 25 Jul 16:44:55 16:51:55 64° 258° (WSW) 17:00:19 435.800 - 435.900 CW/SSB
PANSAT 25 Jul 17:12:58 17:15:20 16° 208° (SSW) 17:17:42 not established
OPAL 25 Jul 17:23:49 17:28:53 62° 104° (ESE) 17:34:01 ?
TMSAT-1 25 Jul 17:36:37 17:40:42 23° 257° (WSW) 17:44:47 436.925 FM
AO-7 25 Jul 17:52:55 18:01:15 76° 74° (ENE) 18:09:35 29.400 - 29.500 MHz
Uosat F 25 Jul 18:03:36 18:08:36 65° 257° (WSW) 18:13:35 435.120 FM
KITSAT 1 25 Jul 18:36:16 18:44:08 59° 70° (ENE) 18:52:00 435.175 FM
JAS-2 25 Jul 19:33:36 19:41:05 60° 77° (ENE) 19:48:46 435.800 - 435.900 CW/SSB, 435.910 FM
STRAND 1 25 Jul 19:41:14 19:45:26 26° 103° (ESE) 19:49:37 ?
AO-7 25 Jul 19:50:32 19:53:34 12° 253° (WSW) 19:56:37 29.400 - 29.500 MHz
Hamsat 25 Jul 19:54:25 19:58:29 49° 259° (WSW) 20:02:31 145.90 MHz
SO-67 25 Jul 19:58:36 19:59:56 12° 79° (E) 20:01:16 435.3500 MHz FM
Saudisat 1A 25 Jul 20:22:45 20:27:07 87° 248° (WSW) 20:31:29 436.775 MHz
KITSAT 1 25 Jul 20:34:34 20:39:15 17° 249° (WSW) 20:43:57 435.175 FM
STRAND 1 25 Jul 21:20:57 21:24:21 18° 283° (WNW) 21:27:46 ?
JAS-2 25 Jul 21:21:10 21:25:45 17° 257° (WSW) 21:30:26 435.800 - 435.900 CW/SSB, 435.910 FM
SO-67 25 Jul 21:30:39 21:32:45 15° 259° (W) 21:34:51 435.3500 MHz FM
Lituanica SAT-1 25 Jul 21:38:41 21:40:35 30° 126° (SE) 21:42:28 437.275 MHz beacon
UKube-1 25 Jul 21:54:19 21:55:29 11° 77° (ENE) 21:56:38 145.840 MHz, 145.915 MHz
Oscar 11 25 Jul 22:41:36 22:44:56 22° 78° (ENE) 22:48:14 145.825 FM, Beacon 2401.500 USB
HO-68 25 Jul 22:50:17 22:57:30 82° 256° (WSW) 23:04:41 435.675 MHz FM
MaSat-1 25 Jul 22:52:01 22:54:08 17° 291° (WNW) 22:56:29 437.345 MHz
ISS 25 Jul 23:21:19 23:24:36 65° 125° (SE) 23:27:53 145.800 FM
UKube-1 25 Jul 23:27:35 23:31:25 30° 258° (WSW) 23:35:14 145.840 MHz, 145.915 MHz
PCSat 26 Jul 00:14:30 00:15:25 10° 110° (ESE) 00:16:20 145.825 MHz
RS-15 26 Jul 00:16:28 00:23:25 18° 68° (ENE) 00:30:28 29.354 - 29.394 USB, Beacon 29.352 USB
SO-50 26 Jul 00:17:09 00:20:17 17° 68° (ENE) 00:23:25 436.795 FM
Oscar 11 26 Jul 00:18:23 00:20:51 15° 258° (WSW) 00:23:19 145.825 FM, Beacon 2401.500 USB
FUNcube-1 26 Jul 00:27:27 00:31:41 39° 258° (WSW) 00:35:50 145.950 - 145.970 MHz USB
Sapphire 26 Jul 01:19:30 01:24:49 62° 109° (ESE) 01:30:08 437.095 MHz 1200 baud AX-25 AFSK
PANSAT 26 Jul 01:40:43 01:42:30 13° 152° (SSE) 01:44:17 not established
PCSat 26 Jul 01:53:25 01:58:35 48° 289° (WNW) 02:03:46 145.825 MHz
SO-50 26 Jul 01:56:35 02:00:36 26° 248° (WSW) 02:04:39 436.795 FM
Oscar 19 26 Jul 02:17:12 02:20:37 18° 103° (ESE) 02:24:03 437.125 CW, 437.150 USB
RS-15 26 Jul 02:24:00 02:35:24 73° 249° (WSW) 02:47:23 29.354 - 29.394 USB, Beacon 29.352 USB
UOSAT-12 26 Jul 02:37:52 02:42:05 35° 68° (ENE) 02:46:15 437.025 FM, 437.400 FM
Oscar 16 26 Jul 02:43:27 02:48:17 41° 103° (ESE) 02:53:09 437.025 USB, Beacon 2401.1428
ITAMSAT 1 26 Jul 02:57:44 03:01:29 21° 103° (ESE) 03:05:15 435.822 SSB
AO-Echo 26 Jul 03:02:21 03:06:07 23° 102° (ESE) 03:09:48 ?
JAS-1B 26 Jul 03:09:32 03:14:26 18° 100° (E) 03:18:53 435.800 - 435.900 CW/SSB
AO-27 26 Jul 03:15:02 03:19:41 35° 103° (ESE) 03:24:21 436.795 MHz FM
Uribyol 2 26 Jul 03:17:05 03:21:51 39° 103° (ESE) 03:26:38 436.500 FM
PANSAT 26 Jul 03:18:51 03:22:44 81° 150° (SSE) 03:26:36 not established
Gurwin Techsat 1B 26 Jul 03:20:00 03:21:30 11° 103° (ESE) 03:23:00 435.225 FM
Oscar 19 26 Jul 03:55:20 03:59:41 28° 282° (WNW) 04:04:04 437.125 CW, 437.150 USB
UOSAT-12 26 Jul 04:20:58 04:21:58 11° 248° (WSW) 04:22:58 437.025 FM, 437.400 FM
Oscar 16 26 Jul 04:25:35 04:27:21 12° 283° (WNW) 04:29:08 437.025 USB, Beacon 2401.1428
AO-7 26 Jul 04:31:26 04:35:18 14° 107° (ESE) 04:39:08 29.400 - 29.500 MHz
TMSAT-1 26 Jul 04:33:56 04:39:10 66° 102° (ESE) 04:44:24 436.925 FM
ITAMSAT 1 26 Jul 04:36:38 04:40:42 24° 283° (WNW) 04:44:48 435.822 SSB
AO-Echo 26 Jul 04:41:17 04:44:37 19° 283° (WNW) 04:47:54 ?
Gurwin Techsat 1B 26 Jul 04:56:09 05:01:10 44° 282° (WNW) 05:06:12 435.225 FM
AO-27 26 Jul 04:56:21 04:58:56 14° 283° (WNW) 05:01:31 436.795 MHz FM
Uosat F 26 Jul 04:56:37 04:59:48 17° 103° (ESE) 05:03:00 435.120 FM
JAS-1B 26 Jul 04:57:07 05:05:00 49° 285° (WNW) 05:11:40 435.800 - 435.900 CW/SSB
Uribyol 2 26 Jul 04:59:04 05:01:03 12° 283° (WNW) 05:03:03 436.500 FM
PANSAT 26 Jul 05:00:38 05:02:55 15° 332° (NNW) 05:05:11 not established
OPAL 26 Jul 05:56:01 06:00:53 52° 256° (WSW) 06:05:42 ?
AO-7 26 Jul 06:19:25 06:27:38 70° 286° (WNW) 06:35:52 29.400 - 29.500 MHz
Uosat F 26 Jul 06:34:10 06:38:19 27° 283° (WNW) 06:42:29 435.120 FM
